Vidfoss — V2QK4 — position and weather

sailwx.info

Track history (hours):
 
Tides and Currents Weather Stations Pressure Air Temp Water Temp Dewpoint Dewpoint Depression Visibility Wind Speed Wind Dir Waves Ship Positions

Vidfoss

Last reported at 2014-Jul-24 12:08 UTC. Time now 2014-Jul-24 20:04 UTC.
Position N 60°25' E 005°05'.

Length 93 m; draft 4.7 m.

Type: Cargo ship. MMSI: 305846000.

Date/timePositionNaut miles runAvg speedWind from/ knotsBaromVisibWave heightAir tempDewpointWater temp
2014-Jul-24 12:08N 60°25' E 005°05'5510.9
2014-Jul-24 07:05N 59°30' E 005°13'611.6
2014-Jul-24 06:33N 59°24' E 005°16'6 2.8
2014-Jul-24 04:33N 59°19' E 005°20'1211.7
2014-Jul-24 03:33N 59°08' E 005°27'1111.3
2014-Jul-24 02:33N 59°02' E 005°46'5 5.3
2014-Jul-24 01:33N 58°57' E 005°45'0 0.0
2014-Jul-24 00:33N 58°57' E 005°45'0 0.0
2014-Jul-23 23:33N 58°57' E 005°45'1 1.2
2014-Jul-23 22:34N 58°57' E 005°47'8 8.3
2014-Jul-23 21:33N 59°02' E 005°34'1212.2
2014-Jul-23 20:33N 58°50' E 005°29'1212.2
2014-Jul-23 19:33N 58°38' E 005°27'1313.1
2014-Jul-23 18:33N 58°25' E 005°30'1313.0
2014-Jul-23 17:33N 58°12' E 005°31'19412.6
2014-Jul-23 02:10N 54°58' E 005°10'912.4
2014-Jul-23 01:26N 54°49' E 005°06'1112.4
2014-Jul-23 00:33N 54°38' E 005°02'1212.3
2014-Jul-22 23:33N 54°26' E 005°00'1212.3
2014-Jul-22 22:33N 54°14' E 004°59'1212.0
2014-Jul-22 21:33N 54°02' E 004°55'1211.8
2014-Jul-22 20:33N 53°51' E 004°52'1211.7
2014-Jul-22 19:34N 53°39' E 004°50'1211.3
2014-Jul-22 18:32N 53°28' E 004°44'1211.3
2014-Jul-22 17:31N 53°17' E 004°38'1111.5
2014-Jul-22 16:33N 53°07' E 004°30'1111.4
2014-Jul-22 15:33N 52°56' E 004°27'1212.2
2014-Jul-22 14:33N 52°44' E 004°28'1212.5
2014-Jul-22 13:33N 52°31' E 004°29'5 5.4
2014-Jul-22 12:33N 52°28' E 004°36'2 2.2
2014-Jul-22 11:31N 52°28' E 004°40'0 0.0
2014-Jul-22 10:32N 52°28' E 004°40'0 0.0
2014-Jul-22 09:33N 52°28' E 004°40'0 0.0
2014-Jul-22 08:33N 52°28' E 004°40'0 0.0
2014-Jul-22 07:31N 52°28' E 004°40'0 0.0
2014-Jul-22 06:31N 52°28' E 004°40'0 0.0
2014-Jul-22 05:32N 52°28' E 004°40'0 0.0
2014-Jul-22 04:33N 52°28' E 004°40'0 0.0
2014-Jul-22 03:33N 52°28' E 004°40'0 0.0
2014-Jul-22 02:31N 52°28' E 004°40'0 0.0
2014-Jul-22 01:32N 52°28' E 004°40'0 0.0
2014-Jul-22 00:32N 52°28' E 004°40'0 0.0
2014-Jul-21 23:33N 52°28' E 004°40'0 0.0
2014-Jul-21 22:31N 52°28' E 004°40'0 0.0
2014-Jul-21 21:31N 52°28' E 004°40'0 0.0
2014-Jul-21 20:32N 52°28' E 004°40'0 0.0
2014-Jul-21 20:17N 52°28' E 004°40'0 0.0
2014-Jul-21 19:32N 52°28' E 004°40'0 0.0
2014-Jul-21 18:33N 52°28' E 004°40'0 0.0
2014-Jul-21 17:31N 52°28' E 004°40'0 0.0
2014-Jul-21 16:31N 52°28' E 004°40'0 0.0
2014-Jul-21 15:32N 52°28' E 004°40'0 0.0
2014-Jul-21 14:30N 52°28' E 004°40'0 0.0
2014-Jul-21 13:33N 52°28' E 004°40'0 0.0
2014-Jul-21 12:31N 52°28' E 004°40'0 0.0
2014-Jul-21 11:31N 52°28' E 004°40'0 0.0
2014-Jul-21 10:29N 52°28' E 004°40'0 0.0
2014-Jul-21 09:27N 52°28' E 004°40'0 0.0
2014-Jul-21 08:33N 52°28' E 004°40'0 0.0
2014-Jul-21 07:31N 52°28' E 004°40'0 0.0
2014-Jul-21 06:32N 52°28' E 004°40'0 0.0
2014-Jul-21 05:32N 52°28' E 004°40'0 0.0
2014-Jul-21 04:33N 52°28' E 004°40'0 0.0
2014-Jul-21 03:31N 52°28' E 004°40'0 0.0
2014-Jul-21 02:31N 52°28' E 004°40'0 0.0
2014-Jul-21 01:32N 52°28' E 004°40'0 0.0
2014-Jul-21 00:33N 52°28' E 004°40'3 3.0
2014-Jul-20 23:33N 52°28' E 004°35'9 8.6
2014-Jul-20 22:33N 52°36' E 004°29'1111.3
2014-Jul-20 21:33N 52°47' E 004°30'1111.2
2014-Jul-20 20:32N 52°58' E 004°31'1210.6
2014-Jul-20 19:26N 53°10' E 004°28'3812.3
2014-Jul-20 16:21N 53°46' E 004°47'1012.3
2014-Jul-20 15:31N 53°56' E 004°53'1212.2
2014-Jul-20 14:33N 54°08' E 004°56'1212.1
2014-Jul-20 13:33N 54°19' E 004°59'23611.8
2014-Jul-19 17:32N 58°15' E 005°32'1411.7
2014-Jul-19 16:22N 58°28' E 005°27'1712.8
2014-Jul-19 15:05N 58°44' E 005°19'913.2
2014-Jul-19 14:26N 58°53' E 005°19'1112.9
2014-Jul-19 13:34N 59°04' E 005°19'2511.5
2014-Jul-19 11:25N 59°28' E 005°13'5511.2
2014-Jul-19 06:28N 60°24' E 005°08'  
2014-Jul-17 02:03N 66°22' E 011°55'612.4
2014-Jul-17 01:33N 66°27' E 012°04'3 3.3
2014-Jul-17 00:33N 66°30' E 012°06'2 1.5
2014-Jul-16 23:34N 66°29' E 012°06'  
2014-Jul-14 14:05N 69°37' E 018°55'1 1.1
2014-Jul-14 13:27N 69°38' E 018°57'0 0.0
2014-Jul-14 12:33N 69°38' E 018°57'  
Track history (hours):
 
Tides and Currents Weather Stations Pressure Air Temp Water Temp Dewpoint Dewpoint Depression Visibility Wind Speed Wind Dir Waves Ship Positions

Vidfoss

Last reported at 2014-Jul-24 12:08 UTC. Time now 2014-Jul-24 20:04 UTC.
Position N 60°25' E 005°05'.

Length 93 m; draft 4.7 m.

Type: Cargo ship. MMSI: 305846000.

Date/timePositionNaut miles runAvg speedWind from/ knotsBaromVisibWave heightAir tempDewpointWater temp
2014-Jul-24 12:08N 60°25' E 005°05'5510.9
2014-Jul-24 07:05N 59°30' E 005°13'611.6
2014-Jul-24 06:33N 59°24' E 005°16'6 2.8
2014-Jul-24 04:33N 59°19' E 005°20'1211.7
2014-Jul-24 03:33N 59°08' E 005°27'1111.3
2014-Jul-24 02:33N 59°02' E 005°46'5 5.3
2014-Jul-24 01:33N 58°57' E 005°45'0 0.0
2014-Jul-24 00:33N 58°57' E 005°45'0 0.0
2014-Jul-23 23:33N 58°57' E 005°45'1 1.2
2014-Jul-23 22:34N 58°57' E 005°47'8 8.3
2014-Jul-23 21:33N 59°02' E 005°34'1212.2
2014-Jul-23 20:33N 58°50' E 005°29'1212.2
2014-Jul-23 19:33N 58°38' E 005°27'1313.1
2014-Jul-23 18:33N 58°25' E 005°30'1313.0
2014-Jul-23 17:33N 58°12' E 005°31'19412.6
2014-Jul-23 02:10N 54°58' E 005°10'912.4
2014-Jul-23 01:26N 54°49' E 005°06'1112.4
2014-Jul-23 00:33N 54°38' E 005°02'1212.3
2014-Jul-22 23:33N 54°26' E 005°00'1212.3
2014-Jul-22 22:33N 54°14' E 004°59'1212.0
2014-Jul-22 21:33N 54°02' E 004°55'1211.8
2014-Jul-22 20:33N 53°51' E 004°52'1211.7
2014-Jul-22 19:34N 53°39' E 004°50'1211.3
2014-Jul-22 18:32N 53°28' E 004°44'1211.3
2014-Jul-22 17:31N 53°17' E 004°38'1111.5
2014-Jul-22 16:33N 53°07' E 004°30'1111.4
2014-Jul-22 15:33N 52°56' E 004°27'1212.2
2014-Jul-22 14:33N 52°44' E 004°28'1212.5
2014-Jul-22 13:33N 52°31' E 004°29'5 5.4
2014-Jul-22 12:33N 52°28' E 004°36'2 2.2
2014-Jul-22 11:31N 52°28' E 004°40'0 0.0
2014-Jul-22 10:32N 52°28' E 004°40'0 0.0
2014-Jul-22 09:33N 52°28' E 004°40'0 0.0
2014-Jul-22 08:33N 52°28' E 004°40'0 0.0
2014-Jul-22 07:31N 52°28' E 004°40'0 0.0
2014-Jul-22 06:31N 52°28' E 004°40'0 0.0
2014-Jul-22 05:32N 52°28' E 004°40'0 0.0
2014-Jul-22 04:33N 52°28' E 004°40'0 0.0
2014-Jul-22 03:33N 52°28' E 004°40'0 0.0
2014-Jul-22 02:31N 52°28' E 004°40'0 0.0
2014-Jul-22 01:32N 52°28' E 004°40'0 0.0
2014-Jul-22 00:32N 52°28' E 004°40'0 0.0
2014-Jul-21 23:33N 52°28' E 004°40'0 0.0
2014-Jul-21 22:31N 52°28' E 004°40'0 0.0
2014-Jul-21 21:31N 52°28' E 004°40'0 0.0
2014-Jul-21 20:32N 52°28' E 004°40'0 0.0
2014-Jul-21 20:17N 52°28' E 004°40'0 0.0
2014-Jul-21 19:32N 52°28' E 004°40'0 0.0
2014-Jul-21 18:33N 52°28' E 004°40'0 0.0
2014-Jul-21 17:31N 52°28' E 004°40'0 0.0
2014-Jul-21 16:31N 52°28' E 004°40'0 0.0
2014-Jul-21 15:32N 52°28' E 004°40'0 0.0
2014-Jul-21 14:30N 52°28' E 004°40'0 0.0
2014-Jul-21 13:33N 52°28' E 004°40'0 0.0
2014-Jul-21 12:31N 52°28' E 004°40'0 0.0
2014-Jul-21 11:31N 52°28' E 004°40'0 0.0
2014-Jul-21 10:29N 52°28' E 004°40'0 0.0
2014-Jul-21 09:27N 52°28' E 004°40'0 0.0
2014-Jul-21 08:33N 52°28' E 004°40'0 0.0
2014-Jul-21 07:31N 52°28' E 004°40'0 0.0
2014-Jul-21 06:32N 52°28' E 004°40'0 0.0
2014-Jul-21 05:32N 52°28' E 004°40'0 0.0
2014-Jul-21 04:33N 52°28' E 004°40'0 0.0
2014-Jul-21 03:31N 52°28' E 004°40'0 0.0
2014-Jul-21 02:31N 52°28' E 004°40'0 0.0
2014-Jul-21 01:32N 52°28' E 004°40'0 0.0
2014-Jul-21 00:33N 52°28' E 004°40'3 3.0
2014-Jul-20 23:33N 52°28' E 004°35'9 8.6
2014-Jul-20 22:33N 52°36' E 004°29'1111.3
2014-Jul-20 21:33N 52°47' E 004°30'1111.2
2014-Jul-20 20:32N 52°58' E 004°31'1210.6
2014-Jul-20 19:26N 53°10' E 004°28'3812.3
2014-Jul-20 16:21N 53°46' E 004°47'1012.3
2014-Jul-20 15:31N 53°56' E 004°53'1212.2
2014-Jul-20 14:33N 54°08' E 004°56'1212.1
2014-Jul-20 13:33N 54°19' E 004°59'23611.8
2014-Jul-19 17:32N 58°15' E 005°32'1411.7
2014-Jul-19 16:22N 58°28' E 005°27'1712.8
2014-Jul-19 15:05N 58°44' E 005°19'913.2
2014-Jul-19 14:26N 58°53' E 005°19'1112.9
2014-Jul-19 13:34N 59°04' E 005°19'2511.5
2014-Jul-19 11:25N 59°28' E 005°13'5511.2
2014-Jul-19 06:28N 60°24' E 005°08'  
2014-Jul-17 02:03N 66°22' E 011°55'612.4
2014-Jul-17 01:33N 66°27' E 012°04'3 3.3
2014-Jul-17 00:33N 66°30' E 012°06'2 1.5
2014-Jul-16 23:34N 66°29' E 012°06'  
2014-Jul-14 14:05N 69°37' E 018°55'1 1.1
2014-Jul-14 13:27N 69°38' E 018°57'0 0.0
2014-Jul-14 12:33N 69°38' E 018°57'  

Dump ship's entire track history